Home > Weather > Plovdiv > Past weeks

Flag for Bulgaria Weather for the Past 2 Weeks in Plovdiv, Bulgaria

Now
36 °F

Chilly.


Feels Like: 33 °F
Forecast: 46 / 74 °F
Wind: 3 mph from Northwest

Location: Plovdiv Airport

Current Time: Feb 14, 2016 at 8:52:11 AM

Latest Report: Feb 14, 2016 at 8:30 AM


Visibility: 0 mi

Pressure: 29.68 "Hg

Humidity: 100%

Dew point: 36 °F

Location of PlovdivLocation

Historic Weather in Plovdiv — Graph

°F

Plovdiv Temperature Yesterday

Maximum temperature yesterday: 50 °F (at 8:30 PM)
Minimum temperature yesterday: 41 °F (at 11:00 PM)
Average temperature yesterday: 46 °F

High & Low Weather Summary for the Past Weeks

 TemperatureHumidityPressure
High66 °F (Feb 1, 3:00 PM)100% (Jan 31, 3:00 AM)30.42 "Hg (Jan 31, 3:00 AM)
Low25 °F (Feb 7, 4:30 AM)31% (Feb 11, 12:30 PM)29.47 "Hg (Feb 10, 11:30 PM)
Average43 °F81%30.04 "Hg
* Reported Jan 30 8:00 AM — Feb 14 8:00 AM, Plovdiv, Weather by CustomWeather, © 2016

Note: Actual official high and low records may vary slightly from our data, if they occured in-between our weather recording intervals... More about our weather records

Advertising

Plovdiv Weather History for the Previous 24 Hours

 ConditionsComfort  
Time TempWeatherWind HumidityBarometerVisibility
8:00 AM
Sun, Feb 14
36 °FFog.5 mph100%29.68 "Hg0 mi
7:30 AM36 °FChilly.6 mph100%29.68 "Hg0 mi
7:00 AM36 °FChilly.5 mph100%29.68 "Hg0 mi
6:30 AM36 °FFog.1 mph100%29.65 "Hg0 mi
6:00 AM36 °FSleet. Overcast.3 mph100%29.65 "Hg0 mi
5:30 AM36 °FSleet. Overcast.5 mph100%29.65 "Hg0 mi
5:00 AM36 °FChilly.3 mph100%29.65 "Hg0 mi
4:30 AM34 °FChilly.6 mph100%29.65 "Hg0 mi
4:00 AM32 °FFog.7 mph100%29.65 "Hg0 mi
3:30 AM34 °FSleet. Overcast.3 mph100%29.62 "Hg0 mi
3:00 AM37 °FFog.1 mph100%29.62 "Hg1 mi
2:30 AM36 °FFog.5 mph100%29.62 "Hg2 mi
2:00 AM37 °FFog.5 mph100%29.62 "Hg2 mi
1:30 AM37 °FSleet. Overcast.No wind100%29.62 "Hg1 mi
1:00 AM39 °FChilly.2 mph100%29.62 "Hg4 mi
12:30 AM41 °FQuite cool.6 mph93%29.59 "Hg4 mi
12:00 AM45 °FQuite cool.5 mph87%29.59 "HgN/A
11:30 PM
Sat, Feb 13
43 °FQuite cool.7 mph93%29.59 "HgN/A
11:00 PM41 °FQuite cool.7 mph93%29.59 "Hg6 mi
10:30 PM43 °FQuite cool.7 mph87%29.59 "Hg6 mi
10:00 PM46 °FCool.7 mph93%29.56 "Hg6 mi
9:30 PM48 °FCool.8 mph94%29.56 "HgN/A
9:00 PM50 °FSprinkles. Mostly cloudy.7 mph88%29.56 "HgN/A
8:30 PM50 °FSprinkles. Passing clouds.8 mph88%29.56 "HgN/A
8:00 PM48 °FSprinkles. Overcast.14 mph94%29.56 "Hg5 mi
7:30 PM48 °FFog.22 mph94%29.56 "Hg4 mi
7:00 PM46 °FFog.10 mph93%29.53 "Hg4 mi
6:30 PM46 °FFog.7 mph93%29.50 "Hg4 mi
6:00 PM46 °FPassing clouds.7 mph100%29.50 "Hg3 mi
5:30 PM48 °FPartly sunny.6 mph87%29.47 "Hg3 mi
5:00 PM48 °FPartly sunny.2 mph94%29.47 "Hg4 mi
4:30 PM48 °FFog.6 mph94%29.47 "Hg3 mi
4:00 PM48 °FLight rain. Mostly cloudy.5 mph94%29.50 "Hg4 mi
3:30 PM48 °FLow clouds.6 mph94%29.50 "Hg4 mi
3:00 PM48 °FMostly cloudy.3 mph94%29.50 "Hg4 mi
2:30 PM48 °FLow clouds.6 mph94%29.53 "Hg4 mi
2:00 PM48 °FLow clouds.6 mph87%29.56 "Hg5 mi
1:30 PM48 °FMostly cloudy.5 mph94%29.59 "HgN/A
1:00 PM48 °FOvercast.3 mph87%29.59 "HgN/A
12:30 PM48 °FOvercast.6 mph87%29.59 "HgN/A
12:00 PM48 °FLow clouds.5 mph87%29.62 "HgN/A
11:30 AM48 °FMore clouds than sun.7 mph87%29.62 "HgN/A
11:00 AM46 °FOvercast.2 mph93%29.65 "Hg3 mi
10:30 AM46 °FLow clouds.3 mph93%29.65 "Hg3 mi
10:00 AM46 °FOvercast.No wind93%29.65 "Hg3 mi
9:30 AM45 °FFog.2 mph100%29.65 "Hg2 mi
9:00 AM45 °FFog.3 mph100%29.65 "Hg2 mi
8:30 AM43 °FFog.2 mph100%29.68 "Hg1 mi
8:00 AM43 °FFog.1 mph100%29.68 "Hg1 mi
Weather by CustomWeather, © 2016

See weather overviewHow to use our weather pages